User: anonymous   Login
Location: Unspecified
(0.0000°N, 0.0000°E)
Time: 00:13:48
(UTC+00:00)
Language:

FUSE - Orbit

View from above orbital plane
View from above orbital plane
View from above satellite
View from above satellite

Ground track
Ground track

The orbit data is extracted from the following two-line orbital elements,

1 25791U 99035A   19109.46898727  .00000214  00000-0  97013-5 0  9993
2 25791  24.9842 240.8459 0010144 259.4762 100.4603 14.42778944 45702
Epoch (UTC): 19 April 2019 11:15:20
Eccentricity: 0.0010144
inclination: 24.9842°
perigee height: 742 km
apogee height: 756 km
right ascension of ascending node: 240.8459°
argument of perigee: 259.4762°
revolutions per day: 14.42778944
mean anomaly at epoch: 100.4603°
orbit number at epoch: 4570

The dashed part of the orbit path shows where the satellite is in the earth's shadow,  

DLR